STARLINK-2247

decayed
NORAD ID: 48446 Int'l Des: 2021-040 Owner: SPXS Country: US Constellation: starlink
LEOCIRCULAR

关于 STARLINK-2247

正在加载描述...

高度历史

Altitude vs Time

uPlot chart will show altitude changes over time

两行轨道根数

1 48446U 21040U 24257.93208104 .13492659 11878-4 61266-2 0 9991
2 48446 53.0428 78.2550 0004879 289.0859 225.6036 16.21283769186460
Epoch: Sep 13, 2024 • Age: 8657 hours

当前状态

Position data unavailable
发射日期 May 9, 2021
运行时间 4.3 years
衰减日期 Sep 14, 2024
类型 internet

技术详情

分类 Payload
质量 260.00 kg
干质量 248.00 kg
总质量 260.00 kg
长度 0.20 m
直径 2.80 m
跨度 9.00 m
形状 Box + pan
制造商 SPXS
平台类型 Starlink
阶段状态 Unknown Transfer Status
所有者/国家 SPXS/US

大型星座

Loading constellations...